Tracking 31027 objects as of 19-Jul-2025
HD Live streaming from Space Station
objects crossing your sky now

DELTA 1 DEB

Track DELTA 1 DEB now!
10-day predictions


NORAD ID: 37662
Int'l Code: 1978-026JZ
Perigee: 821.8 km
Apogee: 870.7 km
Inclination: 99.0 °
Period: 101.7 minutes
Semi major axis: 7217 km
RCS: 0.0109 m2 (small)
Launch date: March 5, 1978
Source: United States (US)
Launch site: AIR FORCE WESTERN TEST RANGE (AFWTR)

Note: This is SATELLITE DEBRIS
Your satellite tracking list
STARLINK-4010
Track 1 satellite(s)




NASA's NSSDC Master Catalog

Two Line Element Set (TLE):
1 37662U 78026JZ  25199.76942430  .00000301  00000-0  17531-3 0  9992
2 37662  99.0329 211.7438 0033906 326.1371  33.7637 14.15946671188525
Source of the keplerian elements: AFSPC